Theta_e
293 290 286 288 288 285 285 284 283 285 290 289 289 288 291 293 291 292 291 292 292 293 298 297 297 298 304 310 313 318 322 326 328 328 328 329 329 330 331 331 331 326 324 321
289 285 291 292 290 287 286 283 282 286 289 289 287 288 290 291 292 293 293 291 291 292 293 294 295 295 296 303 311 315 319 324 327 329 330 330 330 331 332 332 331 329 326 323
286 288 292 291 287 287 285 284 283 285 285 285 285 284 286 289 290 291 292 293 293 292 293 293 293 294 294 295 300 311 317 321 326 329 327 315 320 318 323 328 329 329 327 325
288 291 290 288 286 288 283 289 287 286 284 280 283 277 283 286 288 289 291 291 290 290 292 293 294 294 294 294 296 304 313 319 324 327 325 324 325 324 325 327 328 327 327 326
286 289 288 287 288 290 287 290 287 285 282 281 280 279 282 284 286 289 289 290 290 290 290 292 294 295 295 295 294 300 309 316 321 325 325 325 324 325 314 313 322 322 323 325
287 290 289 290 289 290 291 287 285 283 280 276 280 281 279 282 285 286 289 290 293 294 294 295 295 295 297 297 296 300 307 311 315 322 322 322 321 311 309 307 315 316 317 313
286 286 289 290 288 289 286 284 278 275 275 276 278 278 281 286 287 287 288 290 290 292 293 293 294 295 295 297 297 299 304 307 309 313 312 314 315 310 310 308 311 310 313 307
281 280 288 290 289 286 285 285 278 271 272 275 280 277 283 287 289 289 288 289 292 293 294 293 294 295 294 295 297 298 300 303 306 308 308 308 309 309 309 308 307 308 312 314
281 281 287 288 289 291 285 282 285 279 268 273 278 281 287 287 288 291 292 293 293 293 294 295 295 295 295 295 296 297 298 298 300 303 304 305 305 306 306 304 303 303 302 302
285 280 286 287 288 289 286 288 281 278 270 268 276 277 280 284 289 290 291 291 292 293 294 295 294 294 294 294 295 296 297 298 298 299 300 301 302 302 303 302 301 300 299 299
286 284 282 286 285 284 284 283 282 282 279 273 270 277 284 286 288 290 290 291 292 293 294 294 294 294 294 295 295 296 296 297 298 298 298 298 299 300 300 300 300 299 298 297
288 285 279 283 286 286 285 286 285 280 277 278 278 281 288 288 291 291 291 291 292 293 293 293 293 293 293 293 294 295 296 296 297 297 298 298 298 298 298 298 298 297 297 295
290 283 273 279 283 285 283 284 285 284 281 278 275 280 289 288 289 290 291 291 292 292 292 292 292 292 292 293 293 294 295 295 296 296 297 297 296 296 296 296 296 295 295 294
295 287 280 279 280 284 282 284 285 285 280 282 279 282 285 287 288 290 290 291 292 292 292 292 293 293 293 293 293 293 293 293 294 294 295 295 295 295 295 295 294 294 293 292
292 284 285 286 287 286 283 283 285 283 284 281 284 283 285 288 289 289 290 292 292 291 291 291 291 291 291 292 292 292 292 292 291 291 292 293 294 293 294 292 291 291 290 289
291 283 285 282 286 286 284 284 284 284 285 284 282 285 290 292 290 290 290 290 290 290 290 290 290 290 290 289 289 289 289 288 288 288 288 288 288 288 289 289 289 288 288 287
287 284 281 270 284 284 280 283 284 284 286 286 283 288 291 288 291 291 289 289 289 290 290 289 289 289 288 288 287 286 286 285 285 284 285 285 286 285 287 287 287 287 287 286
285 284 283 274 282 274 280 282 288 287 289 290 289 287 289 290 290 290 289 287 288 288 288 289 288 288 288 286 286 284 283 283 283 284 284 284 284 284 285 285 286 284 284 282
290 286 279 274 277 279 280 282 286 285 284 291 289 289 287 288 289 287 289 288 287 287 288 288 288 287 286 285 284 282 283 283 283 283 283 283 282 282 283 282 282 281 278 278
285 286 282 274 271 269 278 282 286 289 279 284 288 287 286 285 280 285 289 286 286 286 287 287 287 286 285 284 282 281 281 281 281 282 282 282 281 279 280 281 280 278 275 278
279 280 280 277 272 275 281 284 285 278 277 280 285 285 284 283 286 286 285 284 285 285 286 286 285 285 284 283 281 281 281 281 281 279 279 279 278 277 278 277 275 273 273 275
277 275 277 276 276 272 281 284 281 283 283 283 285 285 284 284 284 284 285 285 285 284 284 285 283 282 283 282 279 279 279 280 278 277 276 275 275 275 276 270 272 271 270 271
272 276 273 277 277 282 283 283 285 286 285 284 284 285 285 284 284 283 284 284 285 284 284 281 279 279 279 278 277 277 279 278 276 270 273 276 275 274 272 270 272 270 267 268
273 276 272 273 276 282 283 285 286 287 285 286 286 285 284 283 284 284 284 284 284 282 283 279 280 280 279 276 276 276 277 278 273 274 274 273 274 275 274 279 278 276 276 274
275 277 274 273 278 281 281 284 284 283 284 283 283 283 283 283 283 283 282 282 282 282 278 277 277 278 278 276 274 273 275 273 274 276 278 279 280 279 277 275 273 274 276 278
277 277 275 272 279 279 280 281 282 281 281 280 280 280 281 282 281 280 279 279 278 278 276 277 276 276 275 274 277 277 271 268 267 270 275 276 274 272 273 272 273 282 283 283
Wind_Speed
3 5 6 10 6 4 6 4 5 3 1 3 7 8 11 10 7 10 11 11 11 12 15 8 9 9 10 8 9 12 13 15 11 9 10 10 11 9 9 9 14 14 12 13
6 4 8 5 3 3 2 3 2 3 1 4 5 11 10 8 10 10 10 10 12 8 9 9 9 8 10 15 15 14 15 15 14 11 11 9 11 10 10 9 11 14 15 14
6 4 7 6 4 4 3 5 4 5 3 1 5 9 7 6 6 7 11 11 9 10 11 10 8 9 8 10 11 14 17 17 16 16 7 3 4 3 4 8 9 11 15 15
4 2 6 5 4 7 3 7 4 4 3 4 2 8 6 5 10 8 13 10 8 9 9 8 8 8 8 10 8 9 12 14 14 14 11 15 14 12 10 11 9 8 13 14
7 7 6 4 7 7 6 4 4 3 3 2 3 2 8 3 6 13 9 10 9 8 7 7 7 6 6 6 5 7 8 9 11 14 15 13 12 9 3 3 10 8 8 13
5 1 6 9 3 5 8 7 7 5 3 3 8 8 6 5 8 3 4 7 7 6 7 6 5 6 6 6 4 2 6 6 7 12 12 13 13 7 5 5 7 6 6 4
2 2 2 4 7 4 4 7 2 4 3 7 1 2 9 8 7 5 5 8 9 8 7 6 7 8 7 8 6 2 3 4 4 7 7 8 8 8 9 7 7 7 7 3
8 4 8 5 8 10 9 10 8 9 5 4 2 8 8 5 6 4 2 4 5 7 6 6 6 5 6 7 6 4 1 3 5 5 6 4 5 4 6 7 5 6 7 8
6 6 0 1 4 9 7 7 6 8 3 4 5 7 10 4 1 4 7 7 8 8 8 8 8 7 6 6 6 6 3 1 3 5 5 6 5 6 6 6 5 4 5 4
5 1 2 1 2 2 6 8 5 3 3 4 4 5 6 1 7 5 7 7 8 7 8 7 6 5 3 3 4 4 3 2 2 3 3 4 5 6 5 5 6 7 6 6
3 4 2 4 7 10 3 3 3 5 6 7 1 7 9 8 7 9 6 6 6 7 7 7 7 7 6 5 4 4 4 4 4 2 2 4 4 4 5 5 6 6 6 7
1 4 6 9 2 3 3 10 8 7 7 3 4 13 5 6 8 9 5 3 5 6 3 4 6 6 5 5 6 6 6 6 6 6 5 6 5 4 5 6 6 6 7 6
3 3 3 7 3 3 5 4 5 5 4 10 7 9 5 6 5 2 3 5 4 6 8 9 9 9 9 9 8 8 8 7 6 5 6 6 6 5 7 7 6 6 6 7
4 0 3 12 0 1 5 4 2 6 5 13 10 6 4 6 4 6 5 5 7 8 8 7 7 7 7 8 8 9 8 7 7 6 6 7 7 6 6 7 6 6 6 7
4 4 3 1 2 1 2 4 5 7 12 10 14 11 7 6 4 2 3 5 7 7 7 7 7 7 7 10 10 10 8 8 7 7 7 7 8 6 7 7 7 7 6 6
5 4 2 3 4 5 5 9 8 8 5 6 2 11 8 9 3 2 5 6 5 5 5 6 6 7 6 6 5 6 7 8 7 8 8 7 7 7 7 7 7 6 7 6
8 6 5 5 5 5 6 15 12 5 6 6 9 8 6 3 5 3 3 5 4 3 4 5 5 5 5 6 6 7 7 7 6 6 7 7 7 7 7 6 6 7 7 4
8 6 4 3 3 6 7 1 5 12 5 12 9 3 4 4 4 5 3 3 4 3 3 4 5 6 6 6 6 8 6 7 7 7 7 8 9 9 8 7 6 5 4 5
3 6 3 5 7 5 6 5 7 9 12 14 13 6 5 4 4 3 4 2 2 2 3 3 3 4 5 7 7 7 9 8 8 9 8 7 7 8 8 8 7 5 2 2
1 3 8 4 5 9 6 3 2 6 10 4 6 7 7 6 3 3 5 3 3 4 3 5 6 4 6 4 4 5 6 5 6 8 9 7 6 6 6 6 7 3 3 3
3 2 12 7 4 8 7 5 1 8 9 3 3 6 6 4 4 4 2 2 2 3 6 5 5 6 7 6 5 6 6 6 5 5 6 5 4 5 5 6 2 3 3 3
9 6 4 3 5 10 7 4 9 4 2 4 5 4 4 1 1 2 4 5 5 6 5 5 5 6 6 4 1 5 6 5 4 4 5 6 5 4 3 3 4 3 3 3
3 7 7 8 7 1 3 1 4 3 6 3 4 4 4 3 3 3 4 6 6 7 6 3 4 6 4 3 2 5 4 5 6 5 6 5 5 4 3 3 3 2 2 1
5 2 2 5 4 3 2 6 5 5 4 4 3 3 2 4 5 5 6 6 5 4 6 3 5 6 6 3 3 4 5 5 5 7 6 4 4 5 3 3 3 2 2 2
5 6 6 3 1 5 3 5 5 3 4 3 4 3 6 6 7 6 4 5 6 6 4 3 3 5 7 3 3 3 4 5 7 7 7 6 4 4 4 3 3 3 3 2
6 7 5 6 6 4 4 3 2 1 2 4 4 6 5 4 6 3 3 3 3 6 5 5 5 5 6 6 5 3 4 4 5 7 6 5 3 3 3 1 3 5 5 4
Wind_Direction
34 101 188 202 192 122 138 156 172 228 68 176 233 265 268 282 293 272 256 256 255 247 256 249 229 213 210 216 202 201 194 201 187 189 190 197 205 200 199 199 189 189 194 193
51 210 216 135 139 143 121 127 260 301 56 160 306 273 261 262 256 239 252 255 251 261 269 265 248 225 205 216 210 207 203 197 195 196 203 202 203 209 206 203 198 187 192 192
155 206 141 140 137 148 201 176 204 213 7 19 340 289 265 280 264 272 261 249 256 244 267 273 270 237 212 219 207 204 204 201 198 201 176 86 80 62 186 210 206 199 188 194
215 266 132 139 181 139 201 201 175 162 98 237 40 285 293 277 295 294 274 268 273 261 260 265 271 274 245 230 206 208 206 203 201 187 182 192 201 205 209 210 207 201 194 191
231 171 173 151 198 153 211 124 155 89 107 40 319 336 271 340 294 266 305 300 291 273 257 286 312 309 299 291 233 215 198 193 190 189 191 194 207 214 142 157 195 199 200 201
192 113 149 189 78 149 143 82 48 57 88 297 208 176 273 208 216 293 336 350 352 27 34 9 344 10 4 13 17 215 198 196 178 187 194 196 202 170 159 162 187 194 197 202
33 226 163 144 94 46 91 83 355 343 360 229 92 140 249 265 244 235 288 332 334 340 356 343 352 355 350 10 13 8 188 199 183 179 173 184 192 178 186 176 186 181 199 198
155 255 169 183 172 166 186 158 163 194 205 260 87 238 252 244 262 276 293 290 343 357 358 339 334 355 342 353 20 16 78 211 189 186 190 183 177 180 197 192 186 196 205 211
159 250 229 161 149 147 198 209 152 108 35 49 226 292 301 294 110 40 36 17 12 353 354 358 12 15 349 348 355 359 359 15 203 200 196 204 200 202 212 205 186 193 191 191
209 99 25 177 116 47 160 155 83 7 155 252 263 261 228 255 232 106 58 35 10 3 6 359 14 3 337 339 340 349 344 275 254 228 225 228 219 221 226 211 205 199 201 191
162 128 305 115 211 161 136 180 90 128 156 180 234 255 223 227 129 111 80 46 7 344 353 346 360 356 339 333 332 348 337 314 306 299 270 248 243 234 234 231 236 216 188 194
321 168 179 200 239 232 275 206 167 168 218 248 164 253 321 164 132 115 98 18 341 331 314 350 2 346 349 359 3 0 350 349 343 333 322 297 293 267 252 250 244 219 215 203
354 236 44 349 348 4 207 191 175 114 72 208 156 256 19 71 83 2 2 0 322 334 15 18 19 7 359 358 1 360 356 341 334 315 296 302 288 285 274 266 258 241 232 226
49 166 206 234 332 354 191 168 151 181 199 227 223 218 213 225 315 341 28 354 33 42 34 32 25 8 5 4 5 360 358 359 342 321 312 298 294 269 264 263 257 245 233 235
158 213 142 104 40 357 302 243 183 202 235 194 254 222 204 210 283 333 77 86 73 41 28 20 11 1 356 357 354 351 351 349 349 340 330 310 306 303 276 270 260 253 244 241
166 188 142 253 195 229 252 225 227 249 260 273 295 273 215 249 269 111 128 107 86 69 36 14 11 358 354 338 330 320 330 332 333 335 326 317 313 299 289 288 279 262 253 245
164 156 157 258 196 190 260 235 210 185 185 173 228 248 199 188 156 164 107 103 89 56 28 360 358 341 332 328 322 330 321 315 329 321 313 318 324 321 308 301 291 274 265 244
155 160 158 203 130 213 236 200 214 207 232 216 262 108 101 134 137 125 121 110 68 37 15 345 330 329 328 327 330 325 331 335 333 331 334 341 339 325 316 310 287 277 268 245
175 155 171 162 205 310 299 189 158 178 241 227 243 163 161 129 99 215 179 73 66 345 314 262 262 280 300 314 324 331 333 336 338 339 338 338 333 321 320 313 305 291 271 257
127 336 165 147 180 206 237 268 159 112 278 191 151 149 151 120 123 268 129 7 6 347 310 310 324 312 310 313 309 311 309 324 337 336 327 324 323 318 309 303 308 288 286 260
149 225 206 202 208 279 224 167 59 140 242 173 120 131 136 137 155 147 329 278 287 291 305 306 303 291 291 304 317 306 315 320 312 304 307 314 316 313 304 306 311 306 293 306
180 169 199 127 212 255 163 88 174 185 56 124 118 134 133 193 325 298 291 280 286 281 274 250 253 261 274 285 273 296 301 296 286 300 304 308 308 307 310 311 310 322 334 305
233 185 183 174 204 268 182 188 101 104 132 174 118 93 122 186 227 278 275 297 291 289 291 264 250 280 286 280 220 291 286 322 314 321 306 294 304 296 307 312 306 324 355 312
265 167 167 72 295 171 135 58 63 62 73 64 50 3 341 288 282 268 278 279 279 278 291 263 312 315 306 299 267 248 307 321 309 301 294 283 295 306 295 292 282 257 242 247
193 130 170 271 41 78 28 99 100 66 83 26 358 328 295 307 293 270 272 281 276 270 281 281 274 287 291 316 293 301 332 335 313 306 298 291 280 283 299 282 264 270 265 232
176 172 167 214 183 139 161 159 80 37 18 35 3 322 330 327 308 295 241 249 298 309 312 307 297 294 306 324 321 341 356 346 314 301 292 281 268 273 275 261 303 277 255 237